PDT,Max TemperatureF,Mean TemperatureF,Min TemperatureF,Max Dew PointF,MeanDew PointF,Min DewpointF,Max Humidity, Mean Humidity, Min Humidity, Max Sea Level PressureIn, Mean Sea Level PressureIn, Min Sea Level PressureIn, Max VisibilityMiles, Mean VisibilityMiles, Min VisibilityMiles, Max Wind SpeedMPH, Mean Wind SpeedMPH, Max Gust SpeedMPH,PrecipitationIn, CloudCover, Events, WindDirDegrees
2013-9-1,99,87,74,62,56,50,49,36,22,29.89,29.85,29.79,10,10,10,16,6,20,0.00,5,,308
2013-9-2,97,86,74,61,57,54,53,42,30,29.91,29.85,29.78,10,10,10,20,9,24,0.00,5,,310
2013-9-3,94,83,72,59,56,51,61,45,28,29.96,29.89,29.84,10,10,10,16,10,21,0.00,5,,306
2013-9-4,96,82,68,56,54,52,61,43,25,29.98,29.92,29.85,10,10,8,14,8,26,0.00,1,,308
2013-9-5,95,82,68,53,51,47,59,42,24,29.96,29.91,29.85,10,10,10,15,9,22,0.00,0,,310
2013-9-6,95,81,66,54,52,51,58,41,24,29.95,29.88,29.79,10,10,10,13,5,16,0.00,0,,304
2013-9-7,102,86,70,57,52,41,61,37,13,29.88,29.82,29.75,10,10,9,9,3,16,0.00,0,,280
2013-9-8,103,87,71,55,50,42,53,34,14,29.83,29.77,29.69,10,9,6,13,5,17,0.00,1,,294
2013-9-9,102,87,71,57,51,45,61,38,15,29.76,29.71,29.64,10,9,5,15,2,23,0.00,1,,279
2013-9-10,101,87,73,56,49,34,53,32,10,29.81,29.74,29.69,10,9,6,13,4,16,0.00,2,,294
2013-9-11,91,78,65,58,55,49,73,50,26,29.96,29.90,29.82,10,10,10,13,7,20,0.00,4,,305
2013-9-12,92,78,64,58,55,51,78,52,26,29.95,29.89,29.82,10,10,9,12,5,17,0.00,1,,300
2013-9-13,95,82,69,59,56,52,66,45,23,29.85,29.77,29.68,10,10,9,13,4,16,0.00,1,,308
2013-9-14,98,85,72,60,57,53,64,44,24,29.75,29.70,29.64,10,10,9,14,6,17,0.00,1,,297
2013-9-15,96,82,67,57,52,44,63,41,19,29.79,29.75,29.70,10,10,10,17,9,22,0.00,0,,307
2013-9-16,95,81,66,55,53,50,68,46,23,29.86,29.79,29.71,10,10,10,14,7,18,0.00,0,,306
2013-9-17,88,77,65,52,48,40,60,39,18,29.83,29.79,29.75,10,10,10,17,12,21,0.00,0,,307
2013-9-18,87,73,59,52,48,42,75,49,23,29.89,29.82,29.77,10,10,10,12,5,21,0.00,0,,303
2013-9-19,93,78,63,51,47,43,56,37,17,29.86,29.79,29.71,10,10,6,10,4,18,0.00,0,,269
2013-9-20,94,79,63,57,47,37,66,41,15,29.81,29.76,29.72,10,10,7,20,7,23,0.00,0,,312
2013-9-21,85,74,62,57,55,50,78,55,32,29.88,29.81,29.73,10,8,1,31,8,36,T,4,Rain,303
2013-9-22,77,67,56,52,49,45,86,59,31,29.97,29.92,29.88,10,10,10,16,9,18,0.00,1,,309
2013-9-23,85,71,57,53,51,48,80,55,29,30.02,29.96,29.89,10,10,9,10,3,18,0.00,0,,298
2013-9-24,89,76,62,53,51,47,67,46,25,29.97,29.89,29.80,10,10,9,25,7,31,0.00,1,,311
2013-9-25,77,67,56,50,44,35,72,49,25,29.91,29.83,29.75,10,10,10,22,13,28,0.00,2,,305
2013-9-26,77,65,52,45,39,31,71,45,19,29.94,29.85,29.76,10,10,10,18,9,23,0.00,1,,301
2013-9-27,80,66,51,40,37,32,59,39,19,30.09,30.03,29.95,10,10,10,9,3,,0.00,0,,320
2013-9-28,87,71,55,43,37,27,57,34,11,30.10,30.05,29.98,10,10,10,8,1,10,0.00,1,,130
2013-9-29,90,74,57,50,39,30,51,32,12,30.10,30.04,29.98,10,10,7,14,5,20,0.00,2,,291
2013-9-30,85,73,60,57,53,47,84,57,29,30.06,29.99,29.91,10,10,10,14,7,20,0.00,1,,309